Weather History for Paris, TX

Change the Weather History Date:

Thursday, February 20, 2014

  Actual Average Record
Temperature  
Mean Temperature 58 °F -  
Max Temperature 73 °F 56 °F 78 °F (2005)
Min Temperature 44 °F 38 °F 26 °F (2006)
Degree Days  
Heating Degree Days 6    
Growing Degree Days 8 (Base 50)    
Moisture  
Dew Point 45 °F    
Average Humidity 56    
Maximum Humidity 83    
Minimum Humidity 23    
Precipitation  
Precipitation 0.00 in - - ()
Sea Level Pressure  
Sea Level Pressure 29.79 in    
Wind  
Wind Speed 19 mph (West)    
Max Wind Speed 29 mph    
Max Gust Speed 40 mph    
Visibility 10 miles    
Events      
Averages and records for this station are not official NWS values.
T = Trace of Precipitation, MM = Missing Value Source: NWS Daily Summary

Daily Weather History Graph

Daily Weather History Graph

Search for Another Location

Airport:

Trip Planner

Search our weather history database for the weather conditions in past years. The results will help you decide how hot, cold, wet, or windy it might be!

Date:

Astronomy

Feb. 20, 2014 Rise Set
Actual Time 7:00 AM CST 6:10 PM CST
Civil Twilight 6:35 AM CST 6:36 PM CST
Nautical Twilight 6:06 AM CST 7:05 PM CST
Astronomical Twilight 5:37 AM CST 7:34 PM CST
Moon 11:47 PM CST (2/20) 10:01 AM CST (2/20)
Length of Visible Light 12h 00m
Length of Day
11h 10m
Waning Gibbous, 70% of the Moon is Illuminated
Feb 20
Waning Gibbous
Feb 22
Last Quarter
Mar 1
New
Mar 8
First Quarter
Mar 16
Full

Hourly Weather History & Observations

Time (CST) Temp. Windchill Dew Point Humidity Pressure Visibility Wind Dir Wind Speed Gust Speed Precip Events Conditions
12:15 AM 68.0 °F - 60.8 °F 78% 29.63 in 10.0 mi South 20.7 mph 27.6 mph N/A   Overcast
12:35 AM 66.2 °F - 59.0 °F 78% 29.64 in 10.0 mi South 18.4 mph 26.5 mph N/A   Mostly Cloudy
12:55 AM 66.2 °F - 59.0 °F 78% 29.64 in 10.0 mi South 19.6 mph 26.5 mph N/A   Overcast
1:15 AM 66.2 °F - 59.0 °F 78% 29.64 in 10.0 mi South 18.4 mph - N/A   Mostly Cloudy
1:35 AM 66.2 °F - 59.0 °F 78% 29.65 in 10.0 mi South 18.4 mph 28.8 mph N/A   Mostly Cloudy
1:55 AM 66.2 °F - 57.2 °F 73% 29.64 in 10.0 mi South 19.6 mph 26.5 mph N/A   Overcast
2:15 AM 66.2 °F - 57.2 °F 73% 29.64 in 10.0 mi South 19.6 mph 26.5 mph N/A   Overcast
2:35 AM 66.2 °F - 57.2 °F 73% 29.63 in 10.0 mi South 17.3 mph 27.6 mph N/A   Overcast
2:55 AM 66.2 °F - 57.2 °F 73% 29.63 in 10.0 mi South 17.3 mph 27.6 mph N/A   Overcast
3:15 AM 66.2 °F - 57.2 °F 73% 29.63 in 10.0 mi SSW 19.6 mph - N/A   Overcast
3:35 AM 66.2 °F - 57.2 °F 73% 29.63 in 10.0 mi SSW 18.4 mph 25.3 mph N/A   Overcast
3:55 AM 66.2 °F - 57.2 °F 73% 29.63 in 10.0 mi SSW 17.3 mph 27.6 mph N/A   Overcast
4:15 AM 66.2 °F - 57.2 °F 73% 29.63 in 10.0 mi SSW 19.6 mph 24.2 mph N/A   Overcast
4:35 AM 64.4 °F - 57.2 °F 77% 29.62 in 10.0 mi SSW 17.3 mph 25.3 mph N/A   Mostly Cloudy
4:55 AM 64.4 °F - 57.2 °F 77% 29.62 in 10.0 mi South 19.6 mph 24.2 mph N/A   Mostly Cloudy
5:15 AM 64.4 °F - 57.2 °F 77% 29.61 in 10.0 mi South 18.4 mph 25.3 mph N/A   Mostly Cloudy
5:35 AM 64.4 °F - 57.2 °F 77% 29.62 in 10.0 mi SSW 18.4 mph 27.6 mph N/A   Mostly Cloudy
5:55 AM 64.4 °F - 57.2 °F 77% 29.62 in 10.0 mi SSW 19.6 mph 26.5 mph N/A   Overcast
6:15 AM 64.4 °F - 57.2 °F 77% 29.61 in 10.0 mi SSW 21.9 mph 33.4 mph N/A   Overcast
6:35 AM 64.4 °F - 57.2 °F 77% 29.62 in 10.0 mi SSW 24.2 mph 32.2 mph N/A   Overcast
6:55 AM 66.2 °F - 57.2 °F 73% 29.62 in 10.0 mi SSW 26.5 mph 32.2 mph N/A   Overcast
7:15 AM 66.2 °F - 59.0 °F 78% 29.64 in 10.0 mi SSW 28.8 mph 35.7 mph N/A   Overcast
7:35 AM 66.2 °F - 59.0 °F 78% 29.65 in 10.0 mi SW 26.5 mph 36.8 mph N/A   Overcast
7:55 AM 66.2 °F - 59.0 °F 78% 29.65 in 10.0 mi SSW 26.5 mph 40.3 mph N/A   Overcast
8:15 AM 66.2 °F - 60.8 °F 83% 29.66 in 10.0 mi SW 21.9 mph 35.7 mph N/A   Overcast
8:35 AM 66.2 °F - 60.8 °F 83% 29.67 in 10.0 mi SW 21.9 mph 35.7 mph N/A   Overcast
8:55 AM 68.0 °F - 60.8 °F 78% 29.68 in 10.0 mi SW 26.5 mph 31.1 mph N/A   Overcast
9:15 AM 69.8 °F - 60.8 °F 73% 29.68 in 10.0 mi SW 21.9 mph 31.1 mph N/A   Mostly Cloudy
9:35 AM 69.8 °F - 60.8 °F 73% 29.68 in 10.0 mi SW 21.9 mph 33.4 mph N/A   Partly Cloudy
9:55 AM 71.6 °F - 60.8 °F 69% 29.68 in 10.0 mi SW 25.3 mph 36.8 mph N/A   Partly Cloudy
10:15 AM 71.6 °F - 60.8 °F 69% 29.70 in 10.0 mi SW 21.9 mph 28.8 mph N/A   Scattered Clouds
10:35 AM 71.6 °F - 59.0 °F 64% 29.71 in 10.0 mi SW 26.5 mph 33.4 mph N/A   Mostly Cloudy
10:55 AM 71.6 °F - 59.0 °F 64% 29.72 in 10.0 mi WSW 21.9 mph 31.1 mph N/A   Mostly Cloudy
11:15 AM 71.6 °F - 59.0 °F 64% 29.73 in 10.0 mi WSW 25.3 mph 31.1 mph N/A   Partly Cloudy
11:35 AM 71.6 °F - 57.2 °F 60% 29.73 in 10.0 mi West 24.2 mph 36.8 mph N/A   Scattered Clouds
11:55 AM 73.4 °F - 53.6 °F 50% 29.74 in 10.0 mi West 25.3 mph 29.9 mph N/A   Mostly Cloudy
12:15 PM 73.4 °F - 37.4 °F 27% 29.76 in 10.0 mi West 19.6 mph 31.1 mph N/A   Partly Cloudy
12:35 PM 73.4 °F - 33.8 °F 23% 29.76 in 10.0 mi WNW 25.3 mph 36.8 mph N/A   Clear
12:55 PM 73.4 °F - 35.6 °F 25% 29.77 in 10.0 mi WNW 23.0 mph 28.8 mph N/A   Clear
1:15 PM 71.6 °F - 35.6 °F 27% 29.77 in 10.0 mi WNW 23.0 mph 32.2 mph N/A   Clear
1:35 PM 69.8 °F - 35.6 °F 28% 29.78 in 10.0 mi NW 26.5 mph 33.4 mph N/A   Clear
1:55 PM 69.8 °F - 35.6 °F 28% 29.78 in 10.0 mi NW 26.5 mph 31.1 mph N/A   Clear
2:15 PM 66.2 °F - 35.6 °F 32% 29.78 in 10.0 mi NW 24.2 mph 34.5 mph N/A   Clear
2:35 PM 66.2 °F - 35.6 °F 32% 29.80 in 10.0 mi NW 24.2 mph 34.5 mph N/A   Clear
2:55 PM 66.2 °F - 35.6 °F 32% 29.81 in 10.0 mi NW 26.5 mph 29.9 mph N/A   Clear
3:15 PM 64.4 °F - 35.6 °F 34% 29.82 in 10.0 mi NW 21.9 mph 31.1 mph N/A   Clear
3:35 PM 64.4 °F - 35.6 °F 34% 29.83 in 10.0 mi NW 25.3 mph 31.1 mph N/A   Clear
3:55 PM 62.6 °F - 33.8 °F 34% 29.85 in 10.0 mi NW 25.3 mph 31.1 mph N/A   Clear
4:15 PM 62.6 °F - 32.0 °F 32% 29.86 in 10.0 mi NNW 25.3 mph 33.4 mph N/A   Clear
4:35 PM 60.8 °F - 30.2 °F 31% 29.88 in 10.0 mi NW 23.0 mph 32.2 mph N/A   Clear
4:55 PM 60.8 °F - 32.0 °F 34% 29.89 in 10.0 mi NW 18.4 mph 25.3 mph N/A   Clear
5:15 PM 59.0 °F - 30.2 °F 34% 29.90 in 10.0 mi NW 20.7 mph 26.5 mph N/A   Clear
5:35 PM 57.2 °F - 30.2 °F 36% 29.92 in 10.0 mi NNW 18.4 mph - N/A   Clear
5:55 PM 55.4 °F - 30.2 °F 38% 29.93 in 10.0 mi NNW 17.3 mph - N/A   Clear
6:15 PM 55.4 °F - 30.2 °F 38% 29.95 in 10.0 mi NNW 17.3 mph - N/A   Clear
6:35 PM 53.6 °F - 30.2 °F 41% 29.97 in 10.0 mi NW 11.5 mph - N/A   Clear
6:55 PM 51.8 °F - 30.2 °F 44% 29.98 in 10.0 mi NW 6.9 mph - N/A   Clear
7:15 PM 51.8 °F - 30.2 °F 44% 29.99 in 10.0 mi WNW 5.8 mph - N/A   Clear
7:35 PM 51.8 °F - 30.2 °F 44% 30.00 in 10.0 mi WNW 5.8 mph - N/A   Clear
7:55 PM 50.0 °F - 30.2 °F 47% 30.01 in 10.0 mi WNW 6.9 mph - N/A   Clear
8:15 PM 48.2 °F - 30.2 °F 50% 30.02 in 10.0 mi NW 6.9 mph - N/A   Clear
8:35 PM 48.2 °F - 30.2 °F 50% 30.03 in 10.0 mi NW 6.9 mph - N/A   Clear
8:55 PM 46.4 °F 43.5 °F 30.2 °F 53% 30.04 in 10.0 mi NW 5.8 mph - N/A   Clear
9:15 PM 48.2 °F - 28.4 °F 46% 30.04 in 10.0 mi WNW 5.8 mph - N/A   Clear
9:35 PM 48.2 °F - 28.4 °F 46% 30.05 in 10.0 mi WNW 5.8 mph - N/A   Clear
9:55 PM 46.4 °F 44.3 °F 28.4 °F 50% 30.05 in 10.0 mi WNW 4.6 mph - N/A   Clear
10:15 PM 46.4 °F 44.3 °F 26.6 °F 46% 30.06 in 10.0 mi WNW 4.6 mph - N/A   Clear
10:35 PM 44.6 °F 42.2 °F 26.6 °F 49% 30.06 in 10.0 mi West 4.6 mph - N/A   Clear
10:55 PM 44.6 °F 42.2 °F 28.4 °F 53% 30.07 in 10.0 mi WNW 4.6 mph - N/A   Clear
11:15 PM 44.6 °F 40.2 °F 28.4 °F 53% 30.07 in 10.0 mi NW 8.1 mph - N/A   Clear
11:35 PM 44.6 °F 40.2 °F 28.4 °F 53% 30.07 in 10.0 mi NW 8.1 mph - N/A   Clear
11:55 PM 44.6 °F 41.4 °F 26.6 °F 49% 30.07 in 10.0 mi WNW 5.8 mph - N/A   Clear